Santiago de Compostela

Airport
ICAO code: 
LEST
Summary
ICAO Region: 
EUR
Territory: 
Location: 
Lavacolla,
Coordinates: 
Aerial View: 
42° 53' 51.238" N, 8° 25' 13.663" W
Metar
Observation
LEST 021400Z 35010G24KT 310V020 9999 FEW018 SCT035TCU 09/05 Q1023 NOSIG
Station
Santiago / Labacolla
Date/Time
2021-12-02 14:00:00
Wind direction
350°
Wind speed
10 kts
Lowest cloud amount
few clouds
Temperature
9°C
Dew point
5°C
Humidity
76%
QNH
1023 hPa
Weather condition
n/a

Description

Santiago de Compostela Airport is one of the three international airports in Galicia, Spain. It is located in Lavacolla, a town 16 km from Galicia's capital city, Santiago de Compostela.

Climatology

Dry-summer subtropical ”Mediterranean" climate (Köppen climate classification Csa) - characterized by hot, dry summers and mild winters. During the summer, subtropical high pressure cells dominate, making rainfall unlikely except for the occasional thunderstorm. In the winter, periodic storms bring rain (snow at higher elevations).

Runways

Designator Length Width Surface Rops
17/35 3200 45 ASP Yes/Yes
Airport map: 
Aerial View: 

Accidents and Serious Incidents at or in the vicinity of LEST

SKYbrary Partners:

Safety knowledge contributed by: